Back to catalog

COSMOS 970 DEB

AliveLEO
NORAD 12862·DEBRIS·🇷🇺 Russia

Launched Dec 21, 1977 from Baikonur Cosmodrome

Loading…

Next Passes (next 24 hours)

TLE

FreshSource: Space-Track

Epoch: Sep 14, 2026, 07:57 UTC

1 12862U 77121AQ  26257.33179817  .00001004  00000-0  52922-3 0  9996
2 12862  66.2160 223.0060 0128453 142.2089   7.1091 14.13996328363459

Track COSMOS 970 DEB in real time with AllMySat

Download on the App Store